| time (UTC) | temp F | wind direction | speed knots | gust knots | rain 1hr in | rain 24hr in | rain mn in | humidity % | barometer mb |
| 20260906150814 | 56 | 249 | 0.0 | 2.6 | 0.00 | 0.00 | 0.00 | 81 | 1024.3 |
| 20260906150318 | 57 | 239 | 0.0 | 0.9 | 0.00 | 0.00 | 0.00 | 80 | 1024.3 |
| 20260906150313 | 57 | 229 | 0.0 | 2.6 | 0.00 | 0.00 | 0.00 | 81 | 1024.3 |
| 20260906145310 | 56 | 240 | 0.0 | 0.9 | 0.00 | 0.00 | 0.00 | 80 | 1024.3 |
| 20260906144812 | 56 | 240 | 0.0 | 0.0 | 0.00 | 0.00 | 0.00 | 80 | 1024.1 |
| 20260906144319 | 57 | 240 | 0.0 | 0.0 | 0.00 | 0.00 | 0.00 | 79 | 1024.1 |
| 20260906144311 | 56 | 240 | 0.0 | 0.0 | 0.00 | 0.00 | 0.00 | 79 | 1024.1 |
| 20260906143310 | 57 | 240 | 0.0 | 0.0 | 0.00 | 0.00 | 0.00 | 79 | 1024.0 |
| 20260906142809 | 57 | 240 | 0.0 | 0.0 | 0.00 | 0.00 | 0.00 | 79 | 1024.1 |
| 20260906142308 | 57 | 241 | 0.0 | 0.9 | 0.00 | 0.00 | 0.00 | 79 | 1024.2 |
| 20260906141811 | 57 | 241 | 0.0 | 3.5 | 0.00 | 0.00 | 0.00 | 79 | 1024.2 |
| 20260906141805 | 57 | 240 | 0.0 | 3.5 | 0.00 | 0.00 | 0.00 | 78 | 1024.1 |
| 20260906140807 | 56 | 269 | 0.0 | 1.7 | 0.00 | 0.00 | 0.00 | 77 | 1024.0 |
| 20260906140304 | 57 | 273 | 0.0 | 0.9 | 0.00 | 0.00 | 0.00 | 78 | 1024.0 |
| 20260906135803 | 57 | 272 | 0.0 | 5.2 | 0.00 | 0.00 | 0.00 | 78 | 1023.9 |
| 20260906135305 | 56 | 272 | 0.0 | 5.2 | 0.00 | 0.00 | 0.00 | 77 | 1023.9 |
| 20260906134803 | 56 | 276 | 0.0 | 0.0 | 0.00 | 0.00 | 0.00 | 77 | 1023.9 |
| 20260906134301 | 57 | 276 | 0.0 | 0.0 | 0.00 | 0.00 | 0.00 | 78 | 1024.0 |
| 20260906133800 | 57 | 278 | 0.0 | 0.0 | 0.00 | 0.00 | 0.00 | 78 | 1024.1 |
| 20260906133259 | 57 | 278 | 0.0 | 0.0 | 0.00 | 0.00 | 0.00 | 78 | 1024.2 |
| 20260906132800 | 57 | 278 | 0.0 | 0.9 | 0.00 | 0.00 | 0.00 | 78 | 1024.3 |
| 20260906132306 | 57 | 278 | 0.0 | 0.9 | 0.00 | 0.00 | 0.00 | 79 | 1024.2 |
| 20260906131805 | 57 | 278 | 0.0 | 0.0 | 0.00 | 0.00 | 0.00 | 79 | 1024.2 |
| 20260906131800 | 57 | 278 | 0.0 | 0.0 | 0.00 | 0.00 | 0.00 | 79 | 1024.3 |
| 20260906130801 | 57 | 278 | 0.0 | 3.5 | 0.00 | 0.00 | 0.00 | 79 | 1024.3 |
| 20260906130302 | 57 | 278 | 0.0 | 3.5 | 0.00 | 0.00 | 0.00 | 79 | 1024.3 |
| 20260906125800 | 57 | 272 | 0.0 | 0.9 | 0.00 | 0.00 | 0.00 | 80 | 1024.4 |
| 20260906125300 | 57 | 272 | 0.0 | 0.9 | 0.00 | 0.00 | 0.00 | 80 | 1024.3 |
| 20260906124800 | 57 | 271 | 0.0 | 0.0 | 0.00 | 0.00 | 0.00 | 80 | 1024.3 |
| 20260906124258 | 57 | 271 | 0.0 | 0.0 | 0.00 | 0.00 | 0.00 | 80 | 1024.4 |
| 20260906123757 | 57 | 271 | 0.0 | 0.0 | 0.00 | 0.00 | 0.00 | 81 | 1024.4 |
| 20260906123258 | 57 | 271 | 0.0 | 0.0 | 0.00 | 0.00 | 0.00 | 81 | 1024.3 |
| 20260906122759 | 57 | 271 | 0.0 | 0.0 | 0.00 | 0.00 | 0.00 | 81 | 1024.3 |
| 20260906122259 | 57 | 271 | 0.0 | 0.9 | 0.00 | 0.00 | 0.00 | 81 | 1024.3 |
| 20260906121757 | 57 | 271 | 0.0 | 0.9 | 0.00 | 0.00 | 0.00 | 81 | 1024.4 |
| 20260906121256 | 57 | 271 | 0.0 | 0.9 | 0.00 | 0.00 | 0.00 | 81 | 1024.4 |
| 20260906120756 | 57 | 271 | 0.0 | 0.9 | 0.00 | 0.00 | 0.00 | 82 | 1024.5 |
| 20260906120255 | 57 | 271 | 0.0 | 0.9 | 0.00 | 0.00 | 0.00 | 82 | 1024.4 |
| 20260906115755 | 57 | 270 | 0.0 | 0.0 | 0.00 | 0.00 | 0.00 | 82 | 1024.5 |
| 20260906115258 | 57 | 270 | 0.0 | 0.0 | 0.00 | 0.00 | 0.00 | 82 | 1024.4 |
| 20260906114802 | 57 | 270 | 0.0 | 0.0 | 0.00 | 0.00 | 0.00 | 82 | 1024.4 |
| 20260906114756 | 57 | 270 | 0.0 | 0.0 | 0.00 | 0.00 | 0.00 | 82 | 1024.4 |
| 20260906113755 | 57 | 270 | 0.0 | 0.0 | 0.00 | 0.00 | 0.00 | 82 | 1024.3 |
| 20260906113255 | 57 | 270 | 0.0 | 0.0 | 0.00 | 0.00 | 0.00 | 81 | 1024.3 |
| 20260906112804 | 57 | 270 | 0.0 | 0.0 | 0.00 | 0.00 | 0.00 | 81 | 1024.4 |
| 20260906112756 | 57 | 270 | 0.0 | 0.0 | 0.00 | 0.00 | 0.00 | 81 | 1024.3 |
| 20260906111756 | 57 | 270 | 0.0 | 0.9 | 0.00 | 0.00 | 0.00 | 81 | 1024.3 |
| 20260906111253 | 57 | 272 | 0.0 | 0.9 | 0.00 | 0.00 | 0.00 | 81 | 1024.4 |
| 20260906110753 | 57 | 270 | 0.0 | 0.9 | 0.00 | 0.00 | 0.00 | 81 | 1024.4 |
| 20260906110252 | 58 | 270 | 0.0 | 2.6 | 0.00 | 0.00 | 0.00 | 81 | 1024.4 |
| 20260906105752 | 58 | 270 | 0.0 | 2.6 | 0.00 | 0.00 | 0.00 | 81 | 1024.4 |
| 20260906105253 | 58 | 229 | 0.0 | 4.3 | 0.00 | 0.00 | 0.00 | 81 | 1024.4 |
| 20260906104751 | 58 | 233 | 0.0 | 4.3 | 0.00 | 0.00 | 0.00 | 81 | 1024.3 |
| 20260906104252 | 58 | 250 | 0.0 | 2.6 | 0.00 | 0.00 | 0.00 | 82 | 1024.3 |
| 20260906103752 | 58 | 217 | 0.0 | 0.9 | 0.00 | 0.00 | 0.00 | 82 | 1024.3 |
| 20260906103249 | 58 | 216 | 0.0 | 0.9 | 0.00 | 0.00 | 0.00 | 82 | 1024.2 |
| 20260906102749 | 58 | 212 | 0.0 | 1.7 | 0.00 | 0.00 | 0.00 | 82 | 1024.0 |
| 20260906102254 | 58 | 212 | 0.0 | 1.7 | 0.00 | 0.00 | 0.00 | 81 | 1024.1 |
| 20260906102248 | 58 | 212 | 0.0 | 1.7 | 0.00 | 0.00 | 0.00 | 82 | 1024.0 |
| 20260906101246 | 58 | 212 | 0.0 | 1.7 | 0.00 | 0.00 | 0.00 | 81 | 1024.0 |
| 20260906100748 | 58 | 211 | 0.0 | 0.0 | 0.00 | 0.00 | 0.00 | 81 | 1024.0 |
| 20260906100253 | 58 | 211 | 0.0 | 0.0 | 0.00 | 0.00 | 0.00 | 81 | 1023.9 |
| 20260906100249 | 58 | 211 | 0.0 | 0.0 | 0.00 | 0.00 | 0.00 | 81 | 1024.0 |
| 20260906095247 | 58 | 211 | 0.0 | 0.0 | 0.00 | 0.00 | 0.00 | 81 | 1023.9 |
| 20260906094748 | 58 | 211 | 0.0 | 0.0 | 0.00 | 0.00 | 0.00 | 81 | 1023.8 |
| 20260906094253 | 58 | 210 | 0.0 | 0.0 | 0.00 | 0.00 | 0.00 | 82 | 1023.8 |
| 20260906094247 | 58 | 210 | 0.0 | 0.0 | 0.00 | 0.00 | 0.00 | 82 | 1023.9 |
| 20260906093255 | 59 | 210 | 0.0 | 0.0 | 0.00 | 0.00 | 0.00 | 81 | 1023.6 |
| 20260906093247 | 59 | 210 | 0.0 | 0.0 | 0.00 | 0.00 | 0.00 | 82 | 1023.8 |
| 20260906092749 | 59 | 210 | 0.0 | 0.0 | 0.00 | 0.00 | 0.00 | 81 | 1023.7 |
| 20260906092408 | 59 | 210 | 0.0 | 0.0 | 0.00 | 0.00 | 0.00 | 81 | 1023.6 |
| 20260906091247 | 59 | 210 | 0.0 | 0.0 | 0.00 | 0.00 | 0.00 | 80 | 1023.5 |
| 20260906090749 | 59 | 210 | 0.0 | 0.0 | 0.00 | 0.00 | 0.00 | 80 | 1023.5 |
| 20260906090248 | 59 | 210 | 0.0 | 0.9 | 0.00 | 0.00 | 0.00 | 79 | 1023.3 |
| 20260906085748 | 59 | 210 | 0.0 | 1.7 | 0.00 | 0.00 | 0.00 | 79 | 1023.3 |
| 20260906085247 | 59 | 210 | 0.0 | 1.7 | 0.00 | 0.00 | 0.00 | 79 | 1023.3 |
| 20260906084753 | 59 | 210 | 0.0 | 1.7 | 0.00 | 0.00 | 0.00 | 78 | 1023.3 |
| 20260906084748 | 59 | 210 | 0.0 | 1.7 | 0.00 | 0.00 | 0.00 | 78 | 1023.2 |
| 20260906083750 | 59 | 210 | 0.0 | 1.7 | 0.00 | 0.00 | 0.00 | 78 | 1023.1 |
| 20260906083253 | 59 | 210 | 0.0 | 0.9 | 0.00 | 0.00 | 0.00 | 78 | 1023.1 |
| 20260906083248 | 59 | 210 | 0.0 | 0.9 | 0.00 | 0.00 | 0.00 | 78 | 1023.2 |
| 20260906082248 | 59 | 210 | 0.0 | 0.9 | 0.00 | 0.00 | 0.00 | 78 | 1023.1 |
| 20260906081751 | 59 | 210 | 0.0 | 0.9 | 0.00 | 0.00 | 0.00 | 77 | 1023.1 |
| 20260906081745 | 59 | 210 | 0.0 | 0.9 | 0.00 | 0.00 | 0.00 | 77 | 1023.0 |
| 20260906080746 | 59 | 210 | 0.0 | 1.7 | 0.00 | 0.00 | 0.00 | 77 | 1023.0 |
| 20260906080247 | 59 | 210 | 0.0 | 1.7 | 0.00 | 0.00 | 0.00 | 76 | 1023.0 |
| 20260906075744 | 59 | 210 | 0.0 | 1.7 | 0.00 | 0.00 | 0.00 | 76 | 1022.8 |
| 20260906075243 | 59 | 210 | 0.0 | 1.7 | 0.00 | 0.00 | 0.00 | 76 | 1022.7 |
| 20260906074745 | 59 | 210 | 0.0 | 1.7 | 0.00 | 0.00 | 0.00 | 76 | 1022.6 |
| 20260906074245 | 60 | 210 | 0.0 | 2.6 | 0.00 | 0.00 | 0.00 | 75 | 1022.4 |
| 20260906073743 | 60 | 210 | 0.0 | 2.6 | 0.00 | 0.00 | 0.00 | 75 | 1022.4 |
| 20260906073241 | 60 | 210 | 0.0 | 3.5 | 0.00 | 0.01 | 0.00 | 75 | 1022.5 |
| 20260906072741 | 60 | 210 | 0.0 | 3.5 | 0.00 | 0.01 | 0.00 | 74 | 1022.4 |
| 20260906072341 | 60 | 210 | 0.0 | 2.6 | 0.00 | 0.01 | 0.00 | 75 | 1022.4 |
| 20260906072241 | 60 | 210 | 0.9 | 2.6 | 0.00 | 0.01 | 0.00 | 75 | 1022.5 |
| 20260906071516 | 60 | 210 | 0.0 | 2.6 | 0.00 | 0.01 | 0.00 | 75 | 1022.4 |
| 20260906070739 | 60 | 210 | 0.9 | 2.6 | 0.00 | 0.01 | 0.00 | 74 | 1022.3 |
| 20260906070240 | 60 | 212 | 0.9 | 2.6 | 0.00 | 0.01 | 0.00 | 75 | 1022.2 |
| 20260906065741 | 60 | 212 | 0.9 | 3.5 | 0.00 | 0.01 | 0.00 | 74 | 1022.2 |
| 20260906065240 | 60 | 212 | 0.9 | 3.5 | 0.00 | 0.02 | 0.00 | 74 | 1022.3 |
| 20260906064740 | 60 | 212 | 0.0 | 3.5 | 0.00 | 0.04 | 0.00 | 75 | 1022.2 |
| 20260906064237 | 60 | 214 | 0.0 | 2.6 | 0.00 | 0.06 | 0.00 | 75 | 1022.1 |
| 20260906063743 | 60 | 214 | 0.9 | 2.6 | 0.00 | 0.06 | 0.00 | 74 | 1022.1 |
| 20260906063737 | 60 | 214 | 0.9 | 2.6 | 0.00 | 0.06 | 0.00 | 75 | 1022.2 |
| 20260906063405 | 60 | 216 | 0.9 | 2.6 | 0.00 | 0.06 | 0.00 | 74 | 1022.1 |
| 20260906062237 | 60 | 216 | 0.9 | 2.6 | 0.00 | 0.06 | 0.00 | 74 | 1022.1 |
| 20260906061740 | 60 | 216 | 0.9 | 2.6 | 0.00 | 0.06 | 0.00 | 74 | 1022.1 |
| 20260906061239 | 60 | 218 | 0.9 | 2.6 | 0.00 | 0.06 | 0.00 | 74 | 1022.1 |
| 20260906060738 | 60 | 218 | 0.9 | 2.6 | 0.00 | 0.06 | 0.00 | 74 | 1022.0 |
| 20260906060238 | 60 | 220 | 0.9 | 3.5 | 0.00 | 0.06 | 0.00 | 75 | 1022.1 |
| 20260906055738 | 60 | 222 | 0.9 | 3.5 | 0.00 | 0.06 | 0.00 | 75 | 1022.1 |
| 20260906055235 | 60 | 205 | 0.9 | 3.5 | 0.00 | 0.06 | 0.00 | 75 | 1022.1 |
| 20260906054736 | 60 | 206 | 0.0 | 1.7 | 0.00 | 0.06 | 0.00 | 76 | 1022.0 |
| 20260906054234 | 60 | 206 | 0.9 | 2.6 | 0.00 | 0.06 | 0.00 | 77 | 1022.1 |
| 20260906053740 | 60 | 206 | 0.9 | 3.5 | 0.00 | 0.06 | 0.00 | 76 | 1022.0 |
| 20260906053736 | 60 | 206 | 0.9 | 2.6 | 0.00 | 0.06 | 0.00 | 76 | 1022.0 |
| 20260906052735 | 60 | 206 | 0.9 | 3.5 | 0.00 | 0.06 | 0.00 | 76 | 1022.0 |
| 20260906052236 | 60 | 206 | 0.9 | 3.5 | 0.00 | 0.06 | 0.00 | 76 | 1022.0 |
| 20260906051736 | 60 | 206 | 0.9 | 3.5 | 0.00 | 0.06 | 0.00 | 76 | 1022.0 |
| 20260906051236 | 60 | 206 | 0.9 | 3.5 | 0.00 | 0.06 | 0.00 | 75 | 1022.0 |
| 20260906050734 | 60 | 210 | 0.9 | 3.5 | 0.00 | 0.06 | 0.00 | 75 | 1022.0 |
| 20260906050233 | 60 | 208 | 0.9 | 3.5 | 0.00 | 0.06 | 0.00 | 75 | 1022.0 |
| 20260906045738 | 60 | 180 | 1.7 | 4.3 | 0.00 | 0.06 | 0.00 | 74 | 1021.8 |
| 20260906045732 | 60 | 180 | 0.9 | 4.3 | 0.00 | 0.06 | 0.00 | 75 | 1021.9 |
| 20260906044733 | 60 | 185 | 1.7 | 6.1 | 0.00 | 0.06 | 0.00 | 74 | 1021.7 |
| 20260906044234 | 60 | 185 | 0.9 | 6.1 | 0.00 | 0.06 | 0.00 | 74 | 1021.8 |
| 20260906043735 | 61 | 206 | 0.9 | 3.5 | 0.00 | 0.06 | 0.00 | 75 | 1021.8 |
| 20260906043234 | 60 | 206 | 0.9 | 3.5 | 0.00 | 0.06 | 0.00 | 75 | 1021.8 |
| 20260906042750 | 60 | 206 | 1.7 | 4.3 | 0.00 | 0.06 | 0.00 | 76 | 1021.8 |
| 20260906042233 | 60 | 208 | 2.6 | 4.3 | 0.00 | 0.06 | 0.00 | 74 | 1021.8 |
| 20260906041733 | 61 | 214 | 1.7 | 4.3 | 0.00 | 0.06 | 0.00 | 73 | 1021.8 |
| 20260906041233 | 61 | 235 | 0.9 | 3.5 | 0.00 | 0.06 | 0.00 | 74 | 1021.7 |
| 20260906040733 | 61 | 236 | 0.9 | 3.5 | 0.00 | 0.06 | 0.00 | 74 | 1021.6 |
| 20260906040231 | 61 | 242 | 1.7 | 3.5 | 0.00 | 0.06 | 0.00 | 73 | 1021.6 |
| 20260906035732 | 61 | 244 | 1.7 | 4.3 | 0.00 | 0.06 | 0.00 | 73 | 1021.5 |
| 20260906035230 | 61 | 249 | 0.9 | 4.3 | 0.00 | 0.06 | 0.00 | 74 | 1021.5 |
| 20260906034728 | 61 | 254 | 0.9 | 6.1 | 0.00 | 0.06 | 0.00 | 75 | 1021.5 |
| 20260906034228 | 60 | 256 | 0.9 | 6.1 | 0.00 | 0.06 | 0.00 | 75 | 1021.6 |
| 20260906033728 | 61 | 257 | 1.7 | 4.3 | 0.00 | 0.06 | 0.00 | 75 | 1021.6 |
| 20260906033229 | 61 | 259 | 1.7 | 6.1 | 0.00 | 0.06 | 0.00 | 74 | 1021.7 |
| 20260906032726 | 61 | 208 | 1.7 | 6.1 | 0.00 | 0.06 | 0.00 | 75 | 1021.7 |
| 20260906032226 | 61 | 202 | 1.7 | 6.1 | 0.00 | 0.06 | 0.00 | 76 | 1021.7 |
| 20260906031727 | 60 | 197 | 1.7 | 6.1 | 0.00 | 0.06 | 0.00 | 76 | 1021.7 |
| 20260906031224 | 60 | 209 | 1.7 | 4.3 | 0.00 | 0.06 | 0.00 | 78 | 1021.8 |
| 20260906030726 | 60 | 210 | 1.7 | 5.2 | 0.00 | 0.06 | 0.00 | 78 | 1021.8 |
| 20260906030226 | 60 | 224 | 1.7 | 5.2 | 0.00 | 0.06 | 0.00 | 78 | 1021.9 |
| 20260906025726 | 60 | 241 | 0.9 | 4.3 | 0.00 | 0.06 | 0.00 | 78 | 1021.8 |
| 20260906025228 | 61 | 206 | 1.7 | 7.8 | 0.00 | 0.06 | 0.00 | 77 | 1021.9 |
| 20260906025222 | 60 | 241 | 1.7 | 4.3 | 0.00 | 0.06 | 0.00 | 77 | 1021.8 |
| 20260906024222 | 61 | 208 | 1.7 | 7.8 | 0.00 | 0.06 | 0.00 | 77 | 1022.0 |
| 20260906023725 | 61 | 204 | 1.7 | 6.1 | 0.00 | 0.06 | 0.00 | 77 | 1022.0 |
| 20260906023228 | 61 | 235 | 0.9 | 4.3 | 0.00 | 0.06 | 0.00 | 77 | 1022.1 |
| 20260906023222 | 61 | 233 | 0.9 | 4.3 | 0.00 | 0.06 | 0.00 | 78 | 1022.1 |
| 20260906022848 | 60 | 233 | 1.7 | 5.2 | 0.00 | 0.06 | 0.00 | 76 | 1022.3 |
| 20260906022224 | 60 | 231 | 0.9 | 5.2 | 0.00 | 0.06 | 0.00 | 78 | 1022.2 |
| 20260906021224 | 60 | 234 | 1.7 | 6.1 | 0.00 | 0.06 | 0.00 | 77 | 1022.3 |
| 20260906020723 | 60 | 238 | 1.7 | 6.1 | 0.00 | 0.06 | 0.00 | 78 | 1022.3 |
| 20260906020222 | 60 | 238 | 1.7 | 4.3 | 0.00 | 0.06 | 0.00 | 79 | 1022.3 |
| 20260906015722 | 60 | 195 | 1.7 | 5.2 | 0.00 | 0.06 | 0.00 | 78 | 1022.3 |
| 20260906015223 | 60 | 209 | 1.7 | 6.1 | 0.00 | 0.06 | 0.00 | 78 | 1022.3 |
| 20260906014730 | 61 | 216 | 0.9 | 5.2 | 0.00 | 0.06 | 0.00 | 78 | 1022.4 |
| 20260906014724 | 61 | 242 | 1.7 | 6.1 | 0.00 | 0.06 | 0.00 | 78 | 1022.3 |
| 20260906013723 | 61 | 249 | 0.9 | 4.3 | 0.00 | 0.06 | 0.00 | 79 | 1022.3 |
| 20260906013222 | 61 | 229 | 0.9 | 5.2 | 0.00 | 0.06 | 0.00 | 79 | 1022.3 |
| 20260906012724 | 61 | 231 | 1.7 | 7.0 | 0.00 | 0.06 | 0.00 | 80 | 1022.4 |
| 20260906012225 | 60 | 254 | 1.7 | 7.0 | 0.00 | 0.06 | 0.00 | 79 | 1022.4 |
| 20260906011724 | 60 | 283 | 0.9 | 6.1 | 0.00 | 0.06 | 0.00 | 80 | 1022.3 |
| 20260906011220 | 60 | 285 | 1.7 | 6.1 | 0.00 | 0.06 | 0.00 | 80 | 1022.3 |
| 20260906010720 | 60 | 239 | 1.7 | 5.2 | 0.00 | 0.06 | 0.00 | 81 | 1022.3 |
| 20260906010220 | 60 | 262 | 1.7 | 6.1 | 0.00 | 0.06 | 0.00 | 81 | 1022.2 |
| 20260906005721 | 60 | 281 | 1.7 | 6.1 | 0.00 | 0.06 | 0.00 | 80 | 1022.3 |
| 20260906005220 | 60 | 251 | 1.7 | 6.1 | 0.00 | 0.06 | 0.00 | 80 | 1022.3 |
| 20260906004727 | 60 | 239 | 0.9 | 4.3 | 0.00 | 0.06 | 0.00 | 81 | 1022.3 |
| 20260906004720 | 60 | 267 | 0.9 | 5.2 | 0.00 | 0.06 | 0.00 | 79 | 1022.3 |
| 20260906003721 | 59 | 266 | 0.9 | 3.5 | 0.00 | 0.06 | 0.00 | 81 | 1022.2 |
| 20260906003223 | 59 | 270 | 0.9 | 3.5 | 0.00 | 0.06 | 0.00 | 82 | 1022.2 |
| 20260906002721 | 59 | 281 | 0.9 | 5.2 | 0.00 | 0.06 | 0.00 | 82 | 1022.1 |
| 20260906002220 | 59 | 275 | 0.9 | 5.2 | 0.00 | 0.06 | 0.00 | 82 | 1022.1 |
| 20260906001720 | 58 | 213 | 0.9 | 5.2 | 0.00 | 0.06 | 0.00 | 83 | 1022.1 |
| 20260906001220 | 58 | 266 | 1.7 | 5.2 | 0.00 | 0.06 | 0.00 | 83 | 1022.0 |
| 20260906000720 | 58 | 262 | 0.9 | 7.0 | 0.00 | 0.06 | 0.00 | 84 | 1021.9 |
| 20260906000226 | 58 | 253 | 0.9 | 7.0 | 0.00 | 0.06 | 0.00 | 84 | 1021.8 |
| 20260905235726 | 58 | 268 | 0.9 | 5.2 | 0.00 | 0.06 | 0.00 | 84 | 1021.8 |
| 20260905235720 | 58 | 255 | 0.9 | 5.2 | 0.00 | 0.06 | 0.00 | 84 | 1021.9 |
| 20260905234721 | 58 | 235 | 0.9 | 4.3 | 0.00 | 0.06 | 0.00 | 85 | 1021.8 |
| 20260905234217 | 57 | 281 | 0.0 | 3.5 | 0.00 | 0.06 | 0.00 | 85 | 1021.8 |
| 20260905233722 | 57 | 208 | 0.0 | 7.8 | 0.00 | 0.06 | 0.00 | 85 | 1021.6 |
| 20260905233717 | 57 | 222 | 0.0 | 7.8 | 0.00 | 0.06 | 0.00 | 85 | 1021.7 |
| 20260905232717 | 57 | 242 | 0.9 | 6.1 | 0.00 | 0.06 | 0.00 | 86 | 1021.6 |
| 20260905232222 | 57 | 250 | 0.0 | 4.3 | 0.00 | 0.06 | 0.00 | 86 | 1021.5 |
| 20260905232216 | 57 | 242 | 0.9 | 6.1 | 0.00 | 0.06 | 0.00 | 86 | 1021.6 |
| 20260905231215 | 56 | 235 | 0.9 | 5.2 | 0.00 | 0.06 | 0.00 | 86 | 1021.4 |
| 20260905230714 | 56 | 266 | 0.9 | 5.2 | 0.00 | 0.06 | 0.00 | 86 | 1021.3 |
| 20260905230221 | 56 | 262 | 0.9 | 11.3 | 0.00 | 0.06 | 0.00 | 86 | 1021.1 |
| 20260905230216 | 56 | 310 | 0.0 | 3.5 | 0.00 | 0.06 | 0.00 | 86 | 1021.3 |
| 20260905225840 | 56 | 239 | 0.9 | 11.3 | 0.00 | 0.06 | 0.00 | 87 | 1021.0 |
| 20260905224716 | 56 | 299 | 0.9 | 7.0 | 0.00 | 0.06 | 0.00 | 86 | 1021.0 |
| 20260905224214 | 56 | 258 | 0.0 | 6.1 | 0.00 | 0.06 | 0.00 | 86 | 1021.0 |
| 20260905223715 | 56 | 260 | 0.0 | 2.6 | 0.00 | 0.06 | 0.00 | 87 | 1020.9 |
| 20260905223219 | 56 | 257 | 0.9 | 4.3 | 0.00 | 0.06 | 0.00 | 87 | 1020.8 |
| 20260905223215 | 56 | 256 | 0.9 | 3.5 | 0.00 | 0.06 | 0.00 | 87 | 1020.8 |
| 20260905222215 | 56 | 264 | 0.9 | 4.3 | 0.00 | 0.06 | 0.00 | 87 | 1020.5 |
| 20260905221711 | 55 | 229 | 0.9 | 3.5 | 0.00 | 0.06 | 0.00 | 87 | 1020.4 |
| 20260905221212 | 55 | 260 | 0.0 | 3.5 | 0.00 | 0.06 | 0.00 | 87 | 1020.4 |
| 20260905220711 | 55 | 260 | 0.0 | 3.5 | 0.00 | 0.06 | 0.00 | 87 | 1020.4 |
| 20260905220211 | 55 | 156 | 0.0 | 2.6 | 0.00 | 0.06 | 0.00 | 87 | 1020.4 |
| 20260905215711 | 55 | 270 | 0.0 | 2.6 | 0.00 | 0.06 | 0.00 | 87 | 1020.3 |
| 20260905215212 | 55 | 272 | 0.0 | 2.6 | 0.00 | 0.06 | 0.00 | 87 | 1020.3 |
| 20260905214718 | 55 | 270 | 0.0 | 3.5 | 0.00 | 0.06 | 0.00 | 87 | 1020.2 |
| 20260905214713 | 55 | 272 | 0.0 | 3.5 | 0.00 | 0.06 | 0.00 | 87 | 1020.3 |
| 20260905214340 | 55 | 224 | 0.0 | 7.8 | 0.00 | 0.06 | 0.00 | 87 | 1020.2 |
| 20260905213213 | 55 | 104 | 0.9 | 7.8 | 0.00 | 0.07 | 0.00 | 87 | 1020.2 |
| 20260905212716 | 55 | 241 | 0.0 | 3.5 | 0.00 | 0.07 | 0.00 | 87 | 1019.9 |
| 20260905212710 | 55 | 189 | 0.0 | 5.2 | 0.00 | 0.07 | 0.00 | 87 | 1020.1 |
| 20260905212336 | 55 | 239 | 0.0 | 7.8 | 0.00 | 0.07 | 0.00 | 87 | 1019.8 |
| 20260905211210 | 55 | 239 | 0.0 | 7.8 | 0.00 | 0.07 | 0.00 | 87 | 1019.8 |
| 20260905210709 | 55 | 254 | 0.0 | 1.7 | 0.00 | 0.08 | 0.00 | 87 | 1019.8 |
| 20260905210211 | 55 | 254 | 0.0 | 4.3 | 0.00 | 0.08 | 0.00 | 87 | 1019.7 |
| 20260905205710 | 55 | 258 | 0.9 | 6.1 | 0.00 | 0.08 | 0.00 | 87 | 1019.6 |
| 20260905205211 | 55 | 358 | 0.9 | 6.1 | 0.00 | 0.09 | 0.00 | 87 | 1019.5 |
| 20260905204710 | 55 | 276 | 0.0 | 3.5 | 0.00 | 0.09 | 0.00 | 87 | 1019.5 |
| 20260905204212 | 55 | 250 | 0.0 | 3.5 | 0.00 | 0.09 | 0.00 | 87 | 1019.4 |
| 20260905203707 | 55 | 232 | 0.0 | 1.7 | 0.00 | 0.09 | 0.00 | 87 | 1019.2 |
| 20260905203210 | 55 | 237 | 0.0 | 4.3 | 0.00 | 0.09 | 0.00 | 87 | 1019.1 |
| 20260905202708 | 55 | 231 | 0.0 | 4.3 | 0.00 | 0.10 | 0.00 | 87 | 1019.1 |
| 20260905202209 | 55 | 250 | 0.0 | 2.6 | 0.00 | 0.11 | 0.00 | 87 | 1019.0 |
| 20260905201714 | 55 | 245 | 0.9 | 3.5 | 0.00 | 0.11 | 0.00 | 87 | 1018.9 |
| 20260905201709 | 55 | 306 | 0.0 | 2.6 | 0.00 | 0.11 | 0.00 | 87 | 1018.9 |
| 20260905201205 | 55 | 307 | 0.0 | 3.5 | 0.00 | 0.11 | 0.00 | 87 | 1018.9 |
| 20260905200211 | 55 | 306 | 0.0 | 4.3 | 0.00 | 0.11 | 0.00 | 87 | 1018.7 |
| 20260905200209 | 55 | 260 | 0.9 | 4.3 | 0.00 | 0.11 | 0.00 | 87 | 1018.8 |
| 20260905195831 | 55 | 271 | 0.0 | 3.5 | 0.00 | 0.11 | 0.00 | 87 | 1018.5 |
| 20260905194707 | 55 | 262 | 0.9 | 7.8 | 0.00 | 0.11 | 0.00 | 87 | 1018.5 |
| 20260905194205 | 55 | 283 | 0.9 | 7.8 | 0.00 | 0.11 | 0.00 | 87 | 1018.5 |
| 20260905193707 | 55 | 219 | 0.9 | 8.7 | 0.00 | 0.11 | 0.00 | 87 | 1018.5 |
| 20260905193211 | 55 | 264 | 0.9 | 7.0 | 0.00 | 0.11 | 0.00 | 87 | 1018.5 |
| 20260905193206 | 55 | 229 | 0.9 | 8.7 | 0.00 | 0.11 | 0.00 | 87 | 1018.5 |
| 20260905192205 | 55 | 255 | 0.9 | 7.0 | 0.00 | 0.11 | 0.00 | 87 | 1018.3 |
| 20260905191704 | 55 | 236 | 0.9 | 7.0 | 0.00 | 0.11 | 0.00 | 87 | 1018.3 |
| 20260905191203 | 55 | 289 | 0.9 | 7.8 | 0.00 | 0.11 | 0.00 | 86 | 1018.2 |
| 20260905190705 | 55 | 254 | 0.9 | 7.8 | 0.00 | 0.11 | 0.00 | 86 | 1018.1 |
| 20260905190204 | 55 | 237 | 0.9 | 7.0 | 0.00 | 0.11 | 0.00 | 86 | 1018.1 |
| 20260905185703 | 55 | 266 | 0.9 | 7.8 | 0.00 | 0.11 | 0.00 | 86 | 1018.1 |
| 20260905185209 | 55 | 193 | 0.9 | 7.8 | 0.00 | 0.11 | 0.00 | 86 | 1017.9 |
| 20260905185204 | 55 | 258 | 0.9 | 7.8 | 0.00 | 0.11 | 0.00 | 86 | 1018.0 |
| 20260905184203 | 55 | 253 | 0.9 | 7.8 | 0.00 | 0.11 | 0.00 | 86 | 1017.8 |
| 20260905183705 | 55 | 256 | 0.9 | 6.1 | 0.00 | 0.11 | 0.00 | 85 | 1017.7 |
| 20260905183203 | 55 | 268 | 0.9 | 6.1 | 0.00 | 0.12 | 0.00 | 85 | 1017.6 |
| 20260905182709 | 55 | 239 | 0.9 | 8.7 | 0.00 | 0.12 | 0.00 | 85 | 1017.6 |
| 20260905182703 | 55 | 231 | 0.9 | 8.7 | 0.00 | 0.12 | 0.00 | 85 | 1017.7 |
| 20260905181705 | 56 | 214 | 0.9 | 7.0 | 0.00 | 0.13 | 0.00 | 85 | 1017.5 |
| 20260905181203 | 56 | 251 | 0.9 | 6.1 | 0.00 | 0.15 | 0.00 | 85 | 1017.3 |
| 20260905180704 | 56 | 254 | 0.9 | 6.1 | 0.00 | 0.18 | 0.00 | 85 | 1017.3 |
| 20260905180209 | 56 | 261 | 0.9 | 10.4 | 0.00 | 0.18 | 0.00 | 85 | 1017.0 |
| 20260905180203 | 56 | 237 | 0.9 | 10.4 | 0.00 | 0.18 | 0.00 | 85 | 1017.2 |
| 20260905175203 | 56 | 280 | 0.9 | 6.1 | 0.00 | 0.18 | 0.00 | 85 | 1016.8 |
| 20260905174704 | 56 | 248 | 0.9 | 6.1 | 0.00 | 0.18 | 0.00 | 85 | 1016.6 |
| 20260905174204 | 56 | 271 | 0.9 | 7.0 | 0.00 | 0.18 | 0.00 | 85 | 1016.7 |
| 20260905173703 | 56 | 267 | 0.9 | 7.0 | 0.00 | 0.18 | 0.00 | 85 | 1016.6 |
| 20260905173202 | 56 | 224 | 0.9 | 8.7 | 0.00 | 0.18 | 0.00 | 85 | 1016.6 |
| 20260905172700 | 56 | 222 | 0.9 | 8.7 | 0.00 | 0.18 | 0.00 | 85 | 1016.5 |
| 20260905172202 | 56 | 211 | 0.9 | 8.7 | 0.00 | 0.18 | 0.00 | 85 | 1016.3 |
| 20260905171700 | 56 | 254 | 1.7 | 10.4 | 0.00 | 0.18 | 0.00 | 85 | 1016.2 |
| 20260905171202 | 55 | 226 | 0.9 | 10.4 | 0.00 | 0.18 | 0.00 | 85 | 1016.1 |
| 20260905170706 | 55 | 347 | 0.9 | 7.0 | 0.00 | 0.18 | 0.00 | 85 | 1016.0 |
| 20260905170700 | 56 | 262 | 0.0 | 6.1 | 0.00 | 0.18 | 0.00 | 85 | 1016.1 |
| 20260905165700 | 55 | 49 | 0.9 | 10.4 | 0.00 | 0.19 | 0.00 | 85 | 1015.8 |
| 20260905165201 | 55 | 239 | 0.9 | 10.4 | 0.00 | 0.19 | 0.00 | 85 | 1015.8 |
| 20260905164658 | 55 | 221 | 0.9 | 6.1 | 0.00 | 0.19 | 0.00 | 85 | 1015.8 |
| 20260905164203 | 55 | 254 | 0.9 | 12.2 | 0.00 | 0.19 | 0.00 | 86 | 1015.9 |
| 20260905164159 | 55 | 241 | 0.9 | 12.2 | 0.00 | 0.19 | 0.00 | 85 | 1015.9 |
| 20260905163826 | 55 | 251 | 1.7 | 10.4 | 0.00 | 0.19 | 0.00 | 86 | 1015.7 |
| 20260905162702 | 55 | 224 | 0.0 | 5.2 | 0.00 | 0.19 | 0.00 | 85 | 1015.5 |
| 20260905162656 | 55 | 263 | 0.9 | 7.8 | 0.00 | 0.19 | 0.00 | 86 | 1015.6 |
| 20260905161659 | 55 | 249 | 0.9 | 8.7 | 0.00 | 0.20 | 0.00 | 85 | 1015.5 |
| 20260905161157 | 55 | 248 | 0.9 | 8.7 | 0.00 | 0.20 | 0.00 | 85 | 1015.6 |
| 20260905160658 | 55 | 224 | 0.9 | 7.0 | 0.00 | 0.20 | 0.00 | 85 | 1015.6 |
| 20260905160158 | 55 | 205 | 0.9 | 7.0 | 0.00 | 0.20 | 0.00 | 85 | 1015.6 |
| 20260905155704 | 55 | 245 | 0.9 | 8.7 | 0.00 | 0.20 | 0.00 | 85 | 1015.3 |
| 20260905155658 | 55 | 276 | 0.9 | 8.7 | 0.00 | 0.20 | 0.00 | 85 | 1015.4 |
| 20260905154656 | 55 | 226 | 0.9 | 9.6 | 0.00 | 0.21 | 0.00 | 85 | 1015.2 |
| 20260905154204 | 56 | 244 | 1.7 | 11.3 | 0.00 | 0.21 | 0.00 | 85 | 1015.0 |
| 20260905154154 | 56 | 220 | 0.9 | 9.6 | 0.00 | 0.21 | 0.00 | 85 | 1015.1 |
| 20260905153657 | 56 | 246 | 0.9 | 7.8 | 0.00 | 0.21 | 0.00 | 85 | 1015.0 |
| 20260905152701 | 56 | 289 | 1.7 | 9.6 | 0.00 | 0.21 | 0.00 | 84 | 1014.8 |
| 20260905152655 | 56 | 218 | 1.7 | 11.3 | 0.00 | 0.21 | 0.00 | 84 | 1014.9 |
| 20260905151657 | 56 | 104 | 1.7 | 9.6 | 0.00 | 0.21 | 0.00 | 85 | 1014.8 |
| 20260905151155 | 56 | 289 | 0.9 | 9.6 | 0.00 | 0.21 | 0.00 | 85 | 1014.6 |